Marshfield, MA

3:39 PM EDT on April 26, 2017 (GMT -0400)
Marshfield

Weather History for KGHG - July, 2014

Change the Weather History Date:

Monday, July 14, 2014

  Actual Average (KPYM) Record (KPYM)
Temperature  
Mean Temperature 80 °F -  
Max Temperature 86 °F 81 °F 96 °F (1952)
Min Temperature 73 °F 62 °F 46 °F (1999)
Cooling Degree Days 14    
Growing Degree Days 30 (Base 50)    
Moisture  
Dew Point 71 °F    
Average Humidity 80    
Maximum Humidity 94    
Minimum Humidity 62    
Precipitation  
Precipitation 0.00 in - - ()
Sea Level Pressure  
Sea Level Pressure 29.91 in    
Wind  
Wind Speed 10 mph (SW)    
Max Wind Speed 16 mph    
Max Gust Speed 28 mph    
Visibility 10 miles    
Events      
Averages and records for this station are not official NWS values.
T = Trace of Precipitation, MM = Missing Value Source: NWS Daily Summary

Daily Weather History Graph

Daily Weather History Graph

Search for Another Location

Airport or City:

Trip Planner

Search our weather history database for the weather conditions in past years. The results will help you decide how hot, cold, wet, or windy it might be!

Date:

Astronomy

Jul. 14, 2014 Rise Set
Actual Time 5:19 AM EDT 8:17 PM EDT
Civil Twilight 4:45 AM EDT 8:50 PM EDT
Nautical Twilight 4:03 AM EDT 9:33 PM EDT
Astronomical Twilight 3:13 AM EDT 10:22 PM EDT
Moon 9:40 PM EDT (7/14) 8:01 AM EDT (7/14)
Length of Visible Light 16h 05m
Length of Day
14h 58m
Waning Gibbous, 93% of the Moon is Illuminated
Jul 14
Waning Gibbous
Jul 18
Last Quarter
Jul 26
New
Aug 3
First Quarter
Aug 10
Full

Hourly Weather History & Observations

Time (EDT) Temp. Heat Index Dew Point Humidity Pressure Visibility Wind Dir Wind Speed Gust Speed Precip Events Conditions
12:15 AM 73.4 °F - 68.0 °F 83% 29.94 in 10.0 mi SW 10.4 mph 19.6 mph N/A   Clear
12:35 AM 73.4 °F - 68.0 °F 83% 29.93 in 10.0 mi SSW 16.1 mph 19.6 mph N/A   Clear
12:55 AM 73.4 °F - 68.0 °F 83% 29.93 in 10.0 mi SW 12.7 mph 23.0 mph N/A   Clear
1:15 AM 73.4 °F - 68.0 °F 83% 29.93 in 10.0 mi SSW 13.8 mph 21.9 mph N/A   Clear
1:35 AM 73.4 °F - 68.0 °F 83% 29.92 in 10.0 mi SW 12.7 mph 24.2 mph N/A   Clear
1:55 AM 73.4 °F - 68.0 °F 83% 29.91 in 10.0 mi SW 11.5 mph 21.9 mph N/A   Clear
2:15 AM 73.4 °F - 68.0 °F 83% 29.91 in 10.0 mi SSW 11.5 mph 19.6 mph N/A   Clear
2:35 AM 73.4 °F - 66.2 °F 78% 29.90 in 10.0 mi SSW 12.7 mph 20.7 mph N/A   Clear
2:55 AM 73.4 °F - 66.2 °F 78% 29.89 in 10.0 mi SW 10.4 mph 23.0 mph N/A   Clear
3:15 AM 73.4 °F - 66.2 °F 78% 29.89 in 10.0 mi SW 11.5 mph 24.2 mph N/A   Clear
3:35 AM 73.4 °F - 66.2 °F 78% 29.89 in 10.0 mi SW 13.8 mph 27.6 mph N/A   Partly Cloudy
3:55 AM 73.4 °F - 68.0 °F 83% 29.88 in 10.0 mi SW 13.8 mph 20.7 mph N/A   Mostly Cloudy
4:15 AM 73.4 °F - 68.0 °F 83% 29.89 in 10.0 mi SW 11.5 mph 18.4 mph N/A   Mostly Cloudy
4:35 AM 73.4 °F - 68.0 °F 83% 29.89 in 10.0 mi SW 10.4 mph 18.4 mph N/A   Mostly Cloudy
4:55 AM 73.4 °F - 68.0 °F 83% 29.89 in 10.0 mi SW 8.1 mph - N/A   Clear
5:15 AM 73.4 °F - 68.0 °F 83% 29.89 in 10.0 mi SSW 6.9 mph - N/A   Clear
5:35 AM 73.4 °F - 68.0 °F 83% 29.90 in 10.0 mi SW 8.1 mph - N/A   Clear
5:55 AM 73.4 °F - 69.8 °F 88% 29.91 in 10.0 mi SW 10.4 mph - N/A   Partly Cloudy
6:15 AM 73.4 °F - 69.8 °F 88% 29.91 in 10.0 mi SW 9.2 mph - N/A   Clear
6:35 AM 73.4 °F - 69.8 °F 88% 29.92 in 10.0 mi SW 8.1 mph - N/A   Clear
6:55 AM 73.4 °F - 69.8 °F 88% 29.92 in 10.0 mi SW 8.1 mph - N/A   Clear
7:15 AM 73.4 °F - 69.8 °F 88% 29.93 in 10.0 mi SW 9.2 mph 16.1 mph N/A   Partly Cloudy
7:35 AM 73.4 °F - 69.8 °F 88% 29.93 in 10.0 mi SW 9.2 mph 17.3 mph N/A   Clear
7:55 AM 73.4 °F - 69.8 °F 88% 29.93 in 10.0 mi SW 9.2 mph - N/A   Partly Cloudy
8:15 AM 75.2 °F - 69.8 °F 83% 29.93 in 10.0 mi SW 6.9 mph - N/A   Clear
8:35 AM 78.8 °F - 69.8 °F 74% 29.93 in 10.0 mi WSW 9.2 mph - N/A   Clear
8:55 AM 78.8 °F - 69.8 °F 74% 29.93 in 10.0 mi SW 8.1 mph - N/A   Clear
9:15 AM 78.8 °F - 71.6 °F 78% 29.93 in 10.0 mi WSW 4.6 mph - N/A   Partly Cloudy
9:35 AM 78.8 °F - 71.6 °F 78% 29.92 in 10.0 mi WSW 9.2 mph - N/A   Scattered Clouds
9:55 AM 80.6 °F 84.6 °F 71.6 °F 74% 29.92 in 10.0 mi WSW 6.9 mph - N/A   Scattered Clouds
10:15 AM 80.6 °F 84.6 °F 71.6 °F 74% 29.92 in 10.0 mi SW 8.1 mph - N/A   Partly Cloudy
10:35 AM 80.6 °F 84.6 °F 71.6 °F 74% 29.92 in 10.0 mi SW 9.2 mph - N/A   Partly Cloudy
10:55 AM 82.4 °F 87.2 °F 71.6 °F 70% 29.92 in 8.0 mi SW 6.9 mph - N/A   Partly Cloudy
11:15 AM 82.4 °F 87.2 °F 71.6 °F 70% 29.92 in 9.0 mi WSW 9.2 mph - N/A   Scattered Clouds
11:35 AM 84.2 °F 89.6 °F 71.6 °F 66% 29.92 in 9.0 mi WSW 10.4 mph - N/A   Mostly Cloudy
11:55 AM 84.2 °F 89.6 °F 71.6 °F 66% 29.92 in 10.0 mi WSW 6.9 mph - N/A   Mostly Cloudy
12:15 PM 84.2 °F 89.6 °F 71.6 °F 66% 29.91 in 10.0 mi SW 9.2 mph - N/A   Mostly Cloudy
12:35 PM 84.2 °F 89.6 °F 71.6 °F 66% 29.90 in 9.0 mi SSW 8.1 mph - N/A   Scattered Clouds
12:55 PM 86.0 °F 91.8 °F 71.6 °F 62% 29.90 in 10.0 mi SW 9.2 mph 17.3 mph N/A   Scattered Clouds
1:15 PM 86.0 °F 91.8 °F 71.6 °F 62% 29.90 in 10.0 mi South 12.7 mph 17.3 mph N/A   Scattered Clouds
1:35 PM 84.2 °F 89.6 °F 71.6 °F 66% 29.90 in 10.0 mi SSW 9.2 mph - N/A   Mostly Cloudy
1:55 PM 86.0 °F 91.8 °F 71.6 °F 62% 29.89 in 5.0 mi SW 6.9 mph - N/A   Haze
2:15 PM 84.2 °F 89.6 °F 71.6 °F 66% 29.89 in 10.0 mi WSW 9.2 mph - N/A   Scattered Clouds
2:35 PM 84.2 °F 89.6 °F 71.6 °F 66% 29.90 in 7.0 mi SW 6.9 mph - N/A   Mostly Cloudy
2:55 PM 84.2 °F 89.6 °F 71.6 °F 66% 29.90 in 3.0 mi SW 8.1 mph 16.1 mph N/A   Haze
3:15 PM 82.4 °F 88.2 °F 73.4 °F 74% 29.90 in 10.0 mi SSW 11.5 mph 17.3 mph N/A   Scattered Clouds
3:35 PM 82.4 °F 88.2 °F 73.4 °F 74% 29.89 in 10.0 mi SW 9.2 mph 17.3 mph N/A   Scattered Clouds
3:55 PM 82.4 °F 88.2 °F 73.4 °F 74% 29.89 in 10.0 mi SSW 8.1 mph - N/A   Clear
4:15 PM 82.4 °F 88.2 °F 73.4 °F 74% 29.90 in 10.0 mi SSW 12.7 mph 19.6 mph N/A   Clear
4:35 PM 82.4 °F 88.2 °F 73.4 °F 74% 29.89 in 10.0 mi SSW 10.4 mph 17.3 mph N/A   Clear
4:55 PM 80.6 °F 85.4 °F 73.4 °F 79% 29.89 in 10.0 mi SSW 8.1 mph - N/A   Scattered Clouds
5:15 PM 80.6 °F 85.4 °F 73.4 °F 79% 29.89 in 10.0 mi SW 6.9 mph - N/A   Scattered Clouds
5:55 PM 78.8 °F - 71.6 °F 78% 29.89 in 10.0 mi SSW 9.2 mph - N/A   Clear
6:35 PM 77.0 °F - 71.6 °F 83% 29.90 in 10.0 mi SW 8.1 mph - N/A   Clear
6:55 PM 77.0 °F - 71.6 °F 83% 29.90 in 10.0 mi SW 4.6 mph - N/A   Partly Cloudy
7:15 PM 77.0 °F - 71.6 °F 83% 29.91 in 10.0 mi SSW 10.4 mph - N/A   Partly Cloudy
7:35 PM 75.2 °F - 71.6 °F 89% 29.91 in 10.0 mi SSW 8.1 mph - N/A   Mostly Cloudy
7:55 PM 75.2 °F - 73.4 °F 94% 29.91 in 10.0 mi SW 8.1 mph - N/A   Overcast
8:15 PM 75.2 °F - 73.4 °F 94% 29.91 in 10.0 mi SW 6.9 mph 16.1 mph N/A   Overcast
8:35 PM 75.2 °F - 73.4 °F 94% 29.91 in 10.0 mi SW 9.2 mph - N/A   Overcast
8:55 PM 75.2 °F - 73.4 °F 94% 29.91 in 10.0 mi SSW 5.8 mph - N/A   Mostly Cloudy
9:15 PM 75.2 °F - 73.4 °F 94% 29.91 in 10.0 mi SSW 9.2 mph - N/A   Mostly Cloudy
9:35 PM 75.2 °F - 73.4 °F 94% 29.91 in 10.0 mi SSW 9.2 mph - N/A   Overcast
9:55 PM 75.2 °F - 73.4 °F 94% 29.91 in 10.0 mi South 8.1 mph - N/A   Mostly Cloudy
10:35 PM 75.2 °F - 73.4 °F 94% 29.91 in 10.0 mi SSW 9.2 mph - N/A   Overcast
11:15 PM 75.2 °F - 73.4 °F 94% 29.90 in 10.0 mi SSW 13.8 mph - N/A   Overcast
11:35 PM 75.2 °F - 73.4 °F 94% 29.91 in 10.0 mi SSW 12.7 mph 19.6 mph N/A   Overcast
11:55 PM 75.2 °F - 73.4 °F 94% 29.91 in 10.0 mi SSW 10.4 mph 17.3 mph N/A   Overcast